Total_Precipitation_Accumulation
0.61 0.64 0.65 0.70 0.69 0.80 0.82 0.67 0.53 0.54 0.55 0.54 0.50 0.51 0.50 0.50 0.50 0.55 0.58 0.52 0.46 0.55 0.72 0.79 0.77 0.76 0.70 0.67 0.64 0.64 0.62 0.61 0.58 0.55 0.48 0.42 0.41 0.41 0.44 0.45 0.45 0.46 0.46
0.78 0.81 0.85 0.88 0.86 0.99 1.02 0.87 0.75 0.81 0.80 0.80 0.69 0.65 0.66 0.69 0.66 0.60 0.61 0.61 0.57 0.53 0.63 0.76 0.82 0.81 0.78 0.76 0.70 0.68 0.68 0.68 0.67 0.61 0.54 0.49 0.48 0.47 0.46 0.49 0.50 0.49 0.47
1.11 1.15 1.22 1.16 1.09 1.09 1.11 1.05 0.96 0.96 0.97 0.85 0.75 0.74 0.76 0.69 0.62 0.65 0.70 0.72 0.72 0.70 0.70 0.70 0.73 0.78 0.85 0.87 0.88 0.84 0.81 0.78 0.71 0.67 0.64 0.59 0.55 0.53 0.51 0.51 0.52 0.51 0.49
1.40 1.52 1.56 1.37 1.28 1.26 1.32 1.32 1.19 1.14 1.16 1.15 0.96 0.82 0.83 0.81 0.68 0.67 0.68 0.71 0.79 0.77 0.74 0.68 0.69 0.72 0.75 0.81 0.90 0.94 0.92 0.86 0.82 0.78 0.76 0.72 0.67 0.61 0.55 0.53 0.52 0.51 0.52
1.55 1.66 1.71 1.65 1.51 1.50 1.55 1.47 1.55 1.45 1.43 1.30 1.06 0.90 0.79 0.74 0.72 0.69 0.73 0.76 0.75 0.75 0.80 0.79 0.76 0.75 0.76 0.80 0.82 0.84 0.89 0.92 0.92 0.87 0.83 0.81 0.76 0.69 0.61 0.57 0.56 0.56 0.58
1.86 2.02 1.97 1.95 1.87 1.86 1.91 1.82 1.77 1.62 1.45 1.34 1.13 0.94 0.78 0.65 0.67 0.71 0.69 0.65 0.61 0.59 0.59 0.59 0.60 0.61 0.66 0.72 0.74 0.80 0.95 1.03 1.02 0.97 0.95 0.94 0.88 0.78 0.67 0.63 0.61 0.60 0.60
2.51 2.66 2.58 2.47 2.28 2.17 2.12 1.99 1.84 1.68 1.51 1.45 1.39 1.15 0.88 0.69 0.63 0.59 0.57 0.54 0.49 0.46 0.43 0.45 0.49 0.50 0.54 0.61 0.66 0.72 0.85 0.94 0.96 0.99 1.00 0.99 0.95 0.89 0.82 0.75 0.71 0.69 0.67
3.21 3.19 3.07 2.81 2.53 2.28 2.07 1.92 1.76 1.62 1.46 1.40 1.40 1.32 1.10 0.87 0.65 0.50 0.49 0.46 0.45 0.45 0.43 0.41 0.40 0.38 0.39 0.43 0.49 0.56 0.62 0.65 0.69 0.77 0.82 0.84 0.85 0.87 0.88 0.86 0.83 0.82 0.80
3.15 3.03 2.92 2.76 2.52 2.28 2.06 1.92 1.79 1.65 1.47 1.39 1.36 1.35 1.23 0.96 0.70 0.53 0.44 0.40 0.40 0.40 0.40 0.39 0.37 0.34 0.34 0.34 0.38 0.46 0.53 0.54 0.54 0.61 0.69 0.74 0.77 0.81 0.84 0.87 0.88 0.89 0.90
2.82 2.65 2.64 2.58 2.42 2.20 2.00 1.82 1.69 1.57 1.51 1.40 1.27 1.14 1.03 0.86 0.80 0.69 0.54 0.44 0.39 0.38 0.38 0.37 0.37 0.37 0.38 0.37 0.41 0.45 0.49 0.50 0.50 0.52 0.57 0.62 0.67 0.70 0.74 0.77 0.84 0.91 0.95
2.53 2.37 2.31 2.19 1.99 1.83 1.69 1.53 1.41 1.37 1.36 1.33 1.24 1.13 1.06 0.93 0.80 0.77 0.67 0.50 0.43 0.38 0.35 0.34 0.34 0.36 0.36 0.36 0.38 0.42 0.48 0.48 0.49 0.50 0.51 0.53 0.58 0.62 0.68 0.76 0.84 0.93 1.02
2.34 2.11 1.88 1.74 1.64 1.50 1.33 1.20 1.10 1.02 1.00 1.02 1.03 0.99 0.92 0.90 0.84 0.81 0.74 0.62 0.55 0.48 0.41 0.39 0.38 0.38 0.38 0.36 0.37 0.44 0.47 0.50 0.50 0.47 0.46 0.46 0.47 0.50 0.55 0.63 0.76 0.90 1.06
1.89 1.69 1.51 1.38 1.30 1.24 1.13 1.02 0.94 0.85 0.78 0.77 0.77 0.81 0.80 0.76 0.72 0.74 0.77 0.71 0.64 0.53 0.43 0.38 0.33 0.30 0.32 0.35 0.41 0.43 0.41 0.42 0.42 0.41 0.41 0.43 0.45 0.49 0.50 0.54 0.59 0.69 0.81
1.44 1.23 1.11 1.04 0.94 0.85 0.82 0.80 0.79 0.75 0.69 0.69 0.69 0.72 0.75 0.73 0.68 0.67 0.70 0.74 0.71 0.58 0.49 0.41 0.32 0.29 0.33 0.37 0.44 0.37 0.41 0.38 0.36 0.37 0.39 0.44 0.48 0.57 0.57 0.52 0.49 0.53 0.57
1.07 0.94 0.85 0.79 0.74 0.69 0.65 0.63 0.62 0.63 0.63 0.61 0.61 0.62 0.63 0.60 0.57 0.55 0.57 0.65 0.72 0.65 0.55 0.43 0.37 0.36 0.41 0.43 0.47 0.46 0.51 0.44 0.41 0.46 0.47 0.51 0.58 0.67 0.68 0.59 0.52 0.46 0.45
0.81 0.74 0.69 0.65 0.61 0.57 0.57 0.58 0.58 0.57 0.55 0.52 0.47 0.42 0.38 0.35 0.35 0.34 0.38 0.44 0.53 0.62 0.60 0.43 0.36 0.39 0.43 0.41 0.47 0.50 0.51 0.49 0.52 0.74 0.85 0.76 0.71 0.85 0.94 0.82 0.67 0.58 0.53
0.60 0.59 0.55 0.53 0.51 0.49 0.49 0.48 0.45 0.41 0.37 0.34 0.30 0.28 0.28 0.28 0.29 0.28 0.31 0.37 0.44 0.55 0.63 0.46 0.36 0.38 0.44 0.44 0.47 0.50 0.50 0.53 0.65 1.04 1.30 1.47 1.21 1.09 1.15 1.03 0.87 0.71 0.61
0.55 0.52 0.46 0.44 0.42 0.38 0.34 0.32 0.30 0.26 0.26 0.25 0.25 0.26 0.25 0.26 0.27 0.28 0.32 0.37 0.42 0.53 0.69 0.64 0.50 0.51 0.53 0.53 0.62 0.65 0.57 0.50 0.57 1.00 1.37 1.71 1.66 1.45 1.46 1.28 1.08 0.82 0.66
0.45 0.41 0.37 0.36 0.34 0.32 0.29 0.27 0.25 0.23 0.22 0.23 0.24 0.25 0.25 0.27 0.30 0.34 0.42 0.47 0.49 0.54 0.69 0.75 0.64 0.64 0.69 0.74 0.85 0.78 0.67 0.64 0.52 0.78 1.24 1.58 1.77 1.84 1.93 1.78 1.46 1.07 0.77
0.40 0.41 0.38 0.32 0.27 0.24 0.22 0.21 0.19 0.18 0.20 0.21 0.23 0.27 0.30 0.35 0.40 0.46 0.49 0.53 0.57 0.63 0.68 0.76 0.73 0.76 0.81 0.86 0.92 0.91 0.77 0.68 0.61 0.65 1.08 1.57 1.90 1.97 2.16 2.29 1.99 1.48 1.04
0.40 0.39 0.37 0.33 0.28 0.23 0.19 0.15 0.13 0.15 0.19 0.22 0.25 0.27 0.30 0.38 0.45 0.44 0.42 0.46 0.57 0.70 0.73 0.81 0.82 0.79 0.78 0.88 0.91 0.79 0.70 0.61 0.55 0.59 0.78 1.22 1.90 2.23 2.30 2.37 2.27 1.77 1.29
0.41 0.36 0.33 0.29 0.26 0.19 0.17 0.15 0.13 0.15 0.21 0.26 0.29 0.28 0.25 0.26 0.25 0.27 0.34 0.40 0.50 0.69 0.92 1.04 0.96 0.86 0.74 0.75 0.78 0.73 0.72 0.67 0.60 0.47 0.51 0.82 1.43 2.14 2.42 2.44 2.34 1.78 1.28
0.33 0.30 0.26 0.22 0.21 0.17 0.14 0.12 0.12 0.15 0.23 0.31 0.33 0.30 0.23 0.18 0.21 0.25 0.29 0.34 0.45 0.61 0.84 1.11 1.15 0.91 0.82 0.78 0.81 0.81 0.82 0.83 0.75 0.53 0.55 0.79 1.20 1.89 2.16 2.22 2.10 1.54 1.14
0.28 0.27 0.23 0.20 0.20 0.14 0.10 0.10 0.10 0.13 0.21 0.26 0.29 0.28 0.30 0.29 0.25 0.26 0.28 0.35 0.48 0.64 0.75 0.82 1.08 0.94 0.76 0.73 0.76 0.76 0.81 0.81 0.72 0.58 0.59 0.81 1.16 1.64 1.72 1.83 1.78 1.39 1.07
0.27 0.23 0.18 0.18 0.20 0.16 0.08 0.07 0.07 0.11 0.17 0.20 0.22 0.21 0.20 0.24 0.24 0.34 0.44 0.60 0.74 0.90 0.88 0.98 1.14 1.10 0.98 0.89 0.76 0.72 0.81 0.80 0.75 0.65 0.62 0.76 1.03 1.21 1.35 1.49 1.41 1.28 1.07
0.23 0.18 0.14 0.16 0.18 0.16 0.07 0.05 0.05 0.09 0.14 0.17 0.21 0.25 0.19 0.18 0.26 0.43 0.61 0.81 0.94 1.05 0.97 1.06 1.27 1.33 1.17 1.14 1.09 0.94 0.91 0.83 0.78 0.76 0.66 0.68 0.86 0.90 1.15 1.24 1.19 1.11 1.07